| time (UTC) | temp C | wind direction | speed KPH | gust KPH | rain 1hr cm | rain 24hr cm | rain mn cm | humidity % | barometer mb |
| 20260903085058 | 24 | 187 | 1.6 | 6.4 | 0.00 | 0.00 | 0.00 | 73 | 1013.8 |
| 20260903084557 | 24 | 213 | 1.6 | 6.4 | 0.00 | 0.00 | 0.00 | 73 | 1013.8 |
| 20260903084058 | 24 | 186 | 1.6 | 4.8 | 0.00 | 0.00 | 0.00 | 73 | 1013.8 |
| 20260903083559 | 24 | 218 | 1.6 | 6.4 | 0.00 | 0.00 | 0.00 | 73 | 1013.7 |
| 20260903083057 | 24 | 186 | 1.6 | 6.4 | 0.00 | 0.00 | 0.00 | 74 | 1013.7 |
| 20260903082815 | 24 | 212 | 1.6 | 6.4 | 0.00 | 0.00 | 0.00 | 73 | 1013.7 |
| 20260903082058 | 24 | 0 | 1.6 | 6.4 | 0.00 | 0.00 | 0.00 | 74 | 1013.7 |
| 20260903081559 | 24 | 221 | 1.6 | 6.4 | 0.00 | 0.00 | 0.00 | 74 | 1013.7 |
| 20260903081329 | 24 | 162 | 1.6 | 6.4 | 0.00 | 0.00 | 0.00 | 74 | 1013.7 |
| 20260903080816 | 24 | 165 | 1.6 | 4.8 | 0.00 | 0.00 | 0.00 | 74 | 1013.7 |
| 20260903080318 | 23 | 262 | 1.6 | 3.2 | 0.00 | 0.00 | 0.00 | 75 | 1013.7 |
| 20260903075552 | 23 | 236 | 1.6 | 3.2 | 0.00 | 0.00 | 0.00 | 75 | 1013.7 |
| 20260903075053 | 23 | 164 | 1.6 | 3.2 | 0.00 | 0.00 | 0.00 | 75 | 1013.9 |
| 20260903074551 | 23 | 324 | 0.0 | 3.2 | 0.00 | 0.00 | 0.00 | 76 | 1014.0 |
| 20260903074053 | 23 | 219 | 0.0 | 3.2 | 0.00 | 0.00 | 0.00 | 76 | 1014.1 |
| 20260903073824 | 23 | 0 | 1.6 | 4.8 | 0.00 | 0.00 | 0.00 | 76 | 1014.2 |
| 20260903073052 | 24 | 223 | 1.6 | 4.8 | 0.00 | 0.00 | 0.00 | 75 | 1014.3 |
| 20260903072809 | 24 | 213 | 1.6 | 4.8 | 0.00 | 0.00 | 0.00 | 75 | 1014.1 |
| 20260903072050 | 23 | 198 | 1.6 | 4.8 | 0.00 | 0.00 | 0.00 | 75 | 1014.0 |
| 20260903071550 | 23 | 186 | 1.6 | 3.2 | 0.00 | 0.00 | 0.00 | 75 | 1014.0 |
| 20260903071051 | 23 | 193 | 0.0 | 3.2 | 0.00 | 0.00 | 0.00 | 76 | 1014.0 |
| 20260903070810 | 23 | 157 | 0.0 | 3.2 | 0.00 | 0.00 | 0.00 | 76 | 1014.0 |
| 20260903070048 | 23 | 0 | 0.0 | 1.6 | 0.00 | 0.00 | 0.00 | 76 | 1014.0 |
| 20260903065550 | 24 | 0 | 0.0 | 1.6 | 0.00 | 0.00 | 0.00 | 76 | 1014.2 |
| 20260903065051 | 24 | 230 | 1.6 | 3.2 | 0.00 | 0.00 | 0.00 | 76 | 1014.4 |
| 20260903064810 | 24 | 0 | 1.6 | 3.2 | 0.00 | 0.00 | 0.00 | 75 | 1014.5 |
| 20260903064052 | 24 | 0 | 0.0 | 3.2 | 0.00 | 0.00 | 0.00 | 74 | 1014.6 |
| 20260903063549 | 24 | 252 | 0.0 | 1.6 | 0.00 | 0.00 | 0.00 | 74 | 1014.5 |
| 20260903063049 | 24 | 256 | 0.0 | 3.2 | 0.00 | 0.00 | 0.00 | 74 | 1014.7 |
| 20260903062820 | 25 | 257 | 0.0 | 3.2 | 0.00 | 0.00 | 0.00 | 74 | 1014.8 |
| 20260903062047 | 25 | 263 | 0.0 | 3.2 | 0.00 | 0.00 | 0.00 | 73 | 1014.8 |
| 20260903061544 | 25 | 193 | 0.0 | 3.2 | 0.00 | 0.00 | 0.00 | 73 | 1014.8 |
| 20260903061308 | 25 | 3 | 1.6 | 4.8 | 0.00 | 0.00 | 0.00 | 72 | 1015.1 |
| 20260903060544 | 25 | 107 | 1.6 | 4.8 | 0.00 | 0.00 | 0.00 | 72 | 1015.2 |
| 20260903060044 | 25 | 327 | 1.6 | 4.8 | 0.00 | 0.00 | 0.00 | 71 | 1015.3 |
| 20260903055545 | 26 | 52 | 1.6 | 6.4 | 0.00 | 0.00 | 0.00 | 70 | 1015.2 |
| 20260903055306 | 26 | 319 | 1.6 | 6.4 | 0.00 | 0.00 | 0.00 | 69 | 1015.1 |
| 20260903054545 | 26 | 40 | 3.2 | 6.4 | 0.00 | 0.00 | 0.00 | 69 | 1015.2 |
| 20260903054300 | 27 | 312 | 3.2 | 9.7 | 0.00 | 0.00 | 0.00 | 71 | 1015.3 |
| 20260903053805 | 27 | 334 | 1.6 | 9.7 | 0.00 | 0.00 | 0.00 | 75 | 1015.4 |
| 20260903053042 | 27 | 17 | 0.0 | 1.6 | 0.00 | 0.00 | 0.00 | 76 | 1014.6 |
| 20260903052542 | 27 | 164 | 0.0 | 6.4 | 0.00 | 0.00 | 0.00 | 76 | 1014.1 |
| 20260903052041 | 27 | 0 | 1.6 | 6.4 | 0.00 | 0.00 | 0.00 | 75 | 1014.0 |
| 20260903051805 | 27 | 50 | 0.0 | 4.8 | 0.00 | 0.00 | 0.00 | 75 | 1014.0 |
| 20260903051040 | 27 | 0 | 0.0 | 3.2 | 0.00 | 0.00 | 0.00 | 75 | 1014.0 |
| 20260903050538 | 27 | 0 | 0.0 | 3.2 | 0.00 | 0.00 | 0.00 | 74 | 1013.8 |
| 20260903050038 | 27 | 64 | 1.6 | 3.2 | 0.00 | 0.00 | 0.00 | 74 | 1013.8 |
| 20260903045540 | 27 | 222 | 1.6 | 6.4 | 0.00 | 0.00 | 0.00 | 73 | 1013.6 |
| 20260903045040 | 27 | 77 | 1.6 | 6.4 | 0.00 | 0.00 | 0.00 | 73 | 1013.5 |
| 20260903044536 | 27 | 35 | 1.6 | 6.4 | 0.00 | 0.00 | 0.00 | 72 | 1013.4 |
| 20260903044257 | 27 | 182 | 1.6 | 4.8 | 0.00 | 0.00 | 0.00 | 72 | 1013.4 |
| 20260903043537 | 28 | 43 | 1.6 | 4.8 | 0.00 | 0.00 | 0.00 | 72 | 1013.4 |
| 20260903043038 | 28 | 224 | 1.6 | 4.8 | 0.00 | 0.00 | 0.00 | 72 | 1013.3 |
| 20260903042536 | 28 | 229 | 1.6 | 4.8 | 0.00 | 0.00 | 0.00 | 71 | 1013.2 |
| 20260903042037 | 28 | 115 | 1.6 | 4.8 | 0.00 | 0.00 | 0.00 | 71 | 1013.2 |
| 20260903041802 | 28 | 224 | 1.6 | 6.4 | 0.00 | 0.00 | 0.00 | 71 | 1013.1 |
| 20260903041038 | 28 | 88 | 1.6 | 6.4 | 0.00 | 0.00 | 0.00 | 71 | 1013.0 |
| 20260903040536 | 28 | 87 | 1.6 | 9.7 | 0.00 | 0.00 | 0.00 | 70 | 1013.0 |
| 20260903040036 | 28 | 336 | 1.6 | 9.7 | 0.00 | 0.00 | 0.00 | 70 | 1012.9 |
| 20260903035536 | 28 | 88 | 1.6 | 8.0 | 0.00 | 0.00 | 0.00 | 70 | 1012.9 |
| 20260903035038 | 28 | 177 | 1.6 | 9.7 | 0.00 | 0.00 | 0.00 | 70 | 1012.8 |
| 20260903034537 | 28 | 63 | 1.6 | 9.7 | 0.00 | 0.00 | 0.00 | 70 | 1012.9 |
| 20260903034037 | 28 | 138 | 1.6 | 6.4 | 0.00 | 0.00 | 0.00 | 69 | 1012.7 |
| 20260903033537 | 28 | 358 | 1.6 | 6.4 | 0.00 | 0.00 | 0.00 | 69 | 1012.6 |
| 20260903033308 | 28 | 134 | 1.6 | 8.0 | 0.00 | 0.00 | 0.00 | 68 | 1012.5 |
| 20260903032759 | 28 | 189 | 1.6 | 8.0 | 0.00 | 0.00 | 0.00 | 68 | 1012.4 |
| 20260903032034 | 28 | 204 | 1.6 | 6.4 | 0.00 | 0.00 | 0.00 | 68 | 1012.4 |
| 20260903031754 | 28 | 241 | 1.6 | 8.0 | 0.00 | 0.00 | 0.00 | 68 | 1012.4 |
| 20260903031035 | 28 | 0 | 1.6 | 8.0 | 0.00 | 0.00 | 0.00 | 67 | 1012.6 |
| 20260903030535 | 28 | 182 | 1.6 | 6.4 | 0.00 | 0.00 | 0.00 | 68 | 1012.8 |
| 20260903030031 | 28 | 150 | 1.6 | 4.8 | 0.00 | 0.00 | 0.00 | 67 | 1012.9 |
| 20260903025532 | 28 | 203 | 1.6 | 6.4 | 0.00 | 0.00 | 0.00 | 68 | 1013.0 |
| 20260903025032 | 28 | 0 | 1.6 | 6.4 | 0.00 | 0.00 | 0.00 | 68 | 1013.1 |
| 20260903024533 | 28 | 83 | 1.6 | 6.4 | 0.00 | 0.00 | 0.00 | 68 | 1013.2 |
| 20260903024250 | 28 | 197 | 1.6 | 6.4 | 0.00 | 0.00 | 0.00 | 68 | 1013.3 |
| 20260903023527 | 28 | 0 | 1.6 | 6.4 | 0.00 | 0.00 | 0.00 | 68 | 1013.5 |
| 20260903023025 | 28 | 0 | 1.6 | 4.8 | 0.00 | 0.00 | 0.00 | 67 | 1013.5 |
| 20260903022525 | 28 | 232 | 1.6 | 4.8 | 0.00 | 0.00 | 0.00 | 67 | 1013.5 |
| 20260903022027 | 28 | 243 | 1.6 | 4.8 | 0.00 | 0.00 | 0.00 | 68 | 1013.5 |
| 20260903021528 | 28 | 122 | 1.6 | 4.8 | 0.00 | 0.00 | 0.00 | 68 | 1013.5 |
| 20260903021023 | 28 | 245 | 1.6 | 6.4 | 0.00 | 0.00 | 0.00 | 68 | 1013.6 |
| 20260903020527 | 28 | 102 | 1.6 | 6.4 | 0.00 | 0.00 | 0.00 | 69 | 1013.5 |
| 20260903020021 | 28 | 0 | 1.6 | 4.8 | 0.00 | 0.00 | 0.00 | 69 | 1013.5 |
| 20260903015521 | 28 | 204 | 1.6 | 4.8 | 0.00 | 0.00 | 0.00 | 69 | 1013.6 |
| 20260903015242 | 28 | 166 | 1.6 | 4.8 | 0.00 | 0.00 | 0.00 | 69 | 1013.6 |
| 20260903014522 | 28 | 167 | 1.6 | 3.2 | 0.00 | 0.00 | 0.00 | 69 | 1013.6 |
| 20260903014021 | 28 | 231 | 1.6 | 3.2 | 0.00 | 0.00 | 0.00 | 69 | 1013.6 |
| 20260903013522 | 29 | 236 | 1.6 | 3.2 | 0.00 | 0.00 | 0.00 | 68 | 1013.6 |
| 20260903013016 | 29 | 155 | 1.6 | 3.2 | 0.00 | 0.00 | 0.00 | 68 | 1013.6 |
| 20260903012519 | 29 | 210 | 1.6 | 4.8 | 0.00 | 0.00 | 0.00 | 68 | 1013.7 |
| 20260903012016 | 29 | 0 | 1.6 | 4.8 | 0.00 | 0.00 | 0.00 | 67 | 1013.7 |
| 20260903011517 | 29 | 0 | 1.6 | 4.8 | 0.00 | 0.00 | 0.00 | 67 | 1013.7 |
| 20260903011500 | 29 | 108 | 1.6 | 4.8 | 0.00 | 0.00 | 0.00 | 67 | 1013.7 |
| 20260903010519 | 29 | 194 | 1.6 | 3.2 | 0.00 | 0.00 | 0.00 | 67 | 1013.7 |
| 20260903010019 | 29 | 220 | 0.0 | 3.2 | 0.00 | 0.00 | 0.00 | 66 | 1013.6 |
| 20260903005518 | 29 | 209 | 0.0 | 3.2 | 0.00 | 0.00 | 0.00 | 66 | 1013.6 |
| 20260903005020 | 29 | 0 | 0.0 | 4.8 | 0.00 | 0.00 | 0.00 | 66 | 1013.5 |
| 20260903004517 | 29 | 0 | 0.0 | 4.8 | 0.00 | 0.00 | 0.00 | 66 | 1013.5 |
| 20260903004239 | 30 | 0 | 0.0 | 3.2 | 0.00 | 0.00 | 0.00 | 66 | 1013.5 |
| 20260903003517 | 30 | 0 | 0.0 | 3.2 | 0.00 | 0.00 | 0.00 | 65 | 1013.5 |
| 20260903003017 | 30 | 0 | 0.0 | 3.2 | 0.00 | 0.00 | 0.00 | 65 | 1013.4 |
| 20260903002517 | 30 | 131 | 0.0 | 3.2 | 0.00 | 0.00 | 0.00 | 65 | 1013.3 |
| 20260903002016 | 30 | 0 | 0.0 | 4.8 | 0.00 | 0.00 | 0.00 | 65 | 1013.3 |
| 20260903001514 | 30 | 0 | 1.6 | 4.8 | 0.00 | 0.00 | 0.00 | 64 | 1013.3 |
| 20260903001012 | 30 | 236 | 0.0 | 3.2 | 0.00 | 0.00 | 0.00 | 64 | 1013.4 |
| 20260903000512 | 30 | 0 | 0.0 | 3.2 | 0.00 | 0.00 | 0.00 | 64 | 1013.3 |
| 20260903000228 | 30 | 57 | 0.0 | 3.2 | 0.00 | 0.00 | 0.00 | 64 | 1013.3 |
| 20260902235512 | 30 | 0 | 0.0 | 3.2 | 0.00 | 0.00 | 0.00 | 63 | 1013.3 |
| 20260902235011 | 31 | 0 | 0.0 | 4.8 | 0.00 | 0.00 | 0.00 | 62 | 1013.3 |
| 20260902234512 | 31 | 72 | 1.6 | 4.8 | 0.00 | 0.00 | 0.00 | 62 | 1013.3 |
| 20260902234014 | 31 | 31 | 1.6 | 6.4 | 0.00 | 0.00 | 0.00 | 61 | 1013.3 |
| 20260902233513 | 31 | 99 | 1.6 | 6.4 | 0.00 | 0.00 | 0.00 | 61 | 1013.2 |
| 20260902233013 | 31 | 17 | 1.6 | 6.4 | 0.00 | 0.00 | 0.00 | 60 | 1013.2 |
| 20260902232512 | 31 | 160 | 1.6 | 4.8 | 0.00 | 0.00 | 0.00 | 60 | 1013.2 |
| 20260902232231 | 31 | 110 | 1.6 | 8.0 | 0.00 | 0.00 | 0.00 | 59 | 1013.3 |
| 20260902231512 | 31 | 179 | 1.6 | 8.0 | 0.00 | 0.00 | 0.00 | 59 | 1013.3 |
| 20260902231007 | 31 | 67 | 1.6 | 6.4 | 0.00 | 0.00 | 0.00 | 59 | 1013.3 |
| 20260902230508 | 31 | 332 | 1.6 | 4.8 | 0.00 | 0.00 | 0.00 | 58 | 1013.2 |
| 20260902230235 | 32 | 67 | 1.6 | 6.4 | 0.00 | 0.00 | 0.00 | 59 | 1013.3 |
| 20260902225508 | 32 | 0 | 1.6 | 6.4 | 0.00 | 0.00 | 0.00 | 58 | 1013.2 |
| 20260902225007 | 32 | 0 | 1.6 | 6.4 | 0.00 | 0.00 | 0.00 | 57 | 1013.2 |
| 20260902224506 | 32 | 167 | 1.6 | 6.4 | 0.00 | 0.00 | 0.00 | 56 | 1013.3 |
| 20260902224005 | 32 | 68 | 3.2 | 8.0 | 0.00 | 0.00 | 0.00 | 57 | 1013.2 |
| 20260902223505 | 32 | 71 | 1.6 | 8.0 | 0.00 | 0.00 | 0.00 | 56 | 1013.2 |
| 20260902223005 | 32 | 0 | 1.6 | 6.4 | 0.00 | 0.00 | 0.00 | 57 | 1013.2 |
| 20260902222503 | 32 | 59 | 1.6 | 6.4 | 0.00 | 0.00 | 0.00 | 57 | 1013.2 |
| 20260902222005 | 32 | 57 | 1.6 | 6.4 | 0.00 | 0.00 | 0.00 | 57 | 1013.2 |
| 20260902221504 | 32 | 183 | 1.6 | 9.7 | 0.00 | 0.00 | 0.00 | 57 | 1013.1 |
| 20260902221005 | 32 | 70 | 1.6 | 9.7 | 0.00 | 0.00 | 0.00 | 55 | 1013.0 |
| 20260902220725 | 32 | 327 | 1.6 | 14.5 | 0.00 | 0.00 | 0.00 | 56 | 1013.0 |
| 20260902220006 | 32 | 219 | 1.6 | 14.5 | 0.00 | 0.00 | 0.00 | 55 | 1013.0 |
| 20260902215501 | 33 | 45 | 1.6 | 14.5 | 0.00 | 0.00 | 0.00 | 55 | 1013.0 |
| 20260902215002 | 33 | 0 | 1.6 | 6.4 | 0.00 | 0.00 | 0.00 | 54 | 1013.1 |
| 20260902214459 | 33 | 97 | 1.6 | 6.4 | 0.00 | 0.00 | 0.00 | 53 | 1013.1 |
| 20260902213956 | 33 | 251 | 1.6 | 8.0 | 0.00 | 0.00 | 0.00 | 52 | 1013.1 |
| 20260902213456 | 33 | 356 | 1.6 | 8.0 | 0.00 | 0.00 | 0.00 | 52 | 1013.2 |
| 20260902212957 | 33 | 353 | 1.6 | 6.4 | 0.00 | 0.00 | 0.00 | 54 | 1013.2 |
| 20260902212454 | 33 | 347 | 3.2 | 8.0 | 0.00 | 0.00 | 0.00 | 52 | 1013.2 |
| 20260902211954 | 33 | 158 | 3.2 | 9.7 | 0.00 | 0.00 | 0.00 | 51 | 1013.3 |
| 20260902211713 | 33 | 124 | 3.2 | 9.7 | 0.00 | 0.00 | 0.00 | 52 | 1013.3 |
| 20260902211218 | 34 | 65 | 1.6 | 8.0 | 0.00 | 0.00 | 0.00 | 52 | 1013.3 |
| 20260902210454 | 34 | 55 | 3.2 | 11.3 | 0.00 | 0.00 | 0.00 | 52 | 1013.3 |
| 20260902205954 | 34 | 169 | 3.2 | 11.3 | 0.00 | 0.00 | 0.00 | 51 | 1013.4 |
| 20260902205454 | 33 | 312 | 1.6 | 8.0 | 0.00 | 0.00 | 0.00 | 52 | 1013.4 |
| 20260902204952 | 34 | 333 | 1.6 | 9.7 | 0.00 | 0.00 | 0.00 | 50 | 1013.5 |
| 20260902204454 | 34 | 20 | 1.6 | 9.7 | 0.00 | 0.00 | 0.00 | 49 | 1013.5 |
| 20260902203953 | 34 | 61 | 1.6 | 8.0 | 0.00 | 0.00 | 0.00 | 50 | 1013.7 |
| 20260902203451 | 35 | 64 | 1.6 | 6.4 | 0.00 | 0.00 | 0.00 | 48 | 1013.7 |
| 20260902202950 | 35 | 54 | 3.2 | 9.7 | 0.00 | 0.00 | 0.00 | 49 | 1013.8 |
| 20260902202715 | 35 | 333 | 3.2 | 9.7 | 0.00 | 0.00 | 0.00 | 49 | 1013.8 |
| 20260902201947 | 35 | 102 | 3.2 | 9.7 | 0.00 | 0.00 | 0.00 | 48 | 1013.8 |
| 20260902201448 | 35 | 189 | 3.2 | 9.7 | 0.00 | 0.00 | 0.00 | 51 | 1013.8 |
| 20260902200949 | 35 | 181 | 1.6 | 9.7 | 0.00 | 0.00 | 0.00 | 51 | 1013.8 |
| 20260902200448 | 35 | 243 | 3.2 | 9.7 | 0.00 | 0.00 | 0.00 | 50 | 1013.9 |
| 20260902200210 | 35 | 9 | 3.2 | 8.0 | 0.00 | 0.00 | 0.00 | 49 | 1013.9 |
| 20260902195449 | 35 | 172 | 3.2 | 9.7 | 0.00 | 0.00 | 0.00 | 49 | 1013.9 |
| 20260902194948 | 35 | 95 | 1.6 | 9.7 | 0.00 | 0.00 | 0.00 | 53 | 1014.0 |
| 20260902194449 | 35 | 79 | 3.2 | 11.3 | 0.00 | 0.00 | 0.00 | 52 | 1014.0 |
| 20260902193947 | 35 | 190 | 3.2 | 11.3 | 0.00 | 0.00 | 0.00 | 51 | 1014.1 |
| 20260902193449 | 35 | 204 | 3.2 | 11.3 | 0.00 | 0.00 | 0.00 | 50 | 1014.1 |
| 20260902192948 | 35 | 156 | 3.2 | 11.3 | 0.00 | 0.00 | 0.00 | 51 | 1014.2 |
| 20260902192447 | 35 | 242 | 3.2 | 11.3 | 0.00 | 0.00 | 0.00 | 51 | 1014.2 |
| 20260902191948 | 35 | 176 | 3.2 | 11.3 | 0.00 | 0.00 | 0.00 | 51 | 1014.3 |
| 20260902191709 | 35 | 297 | 3.2 | 9.7 | 0.00 | 0.00 | 0.00 | 50 | 1014.4 |
| 20260902190950 | 35 | 67 | 3.2 | 11.3 | 0.00 | 0.00 | 0.00 | 50 | 1014.4 |
| 20260902190450 | 35 | 104 | 3.2 | 11.3 | 0.00 | 0.00 | 0.00 | 50 | 1014.4 |
| 20260902185947 | 34 | 358 | 3.2 | 9.7 | 0.00 | 0.00 | 0.00 | 52 | 1014.4 |
| 20260902185446 | 34 | 45 | 3.2 | 9.7 | 0.00 | 0.00 | 0.00 | 54 | 1014.5 |
| 20260902184945 | 34 | 297 | 3.2 | 9.7 | 0.00 | 0.00 | 0.00 | 53 | 1014.6 |
| 20260902184443 | 34 | 133 | 3.2 | 6.4 | 0.00 | 0.00 | 0.00 | 53 | 1014.6 |
| 20260902183943 | 34 | 235 | 1.6 | 6.4 | 0.00 | 0.00 | 0.00 | 52 | 1014.7 |
| 20260902183444 | 35 | 66 | 3.2 | 6.4 | 0.00 | 0.00 | 0.00 | 52 | 1014.7 |
| 20260902182944 | 35 | 331 | 3.2 | 11.3 | 0.00 | 0.00 | 0.00 | 51 | 1014.7 |
| 20260902182444 | 35 | 162 | 3.2 | 11.3 | 0.00 | 0.00 | 0.00 | 51 | 1014.8 |
| 20260902181942 | 35 | 149 | 1.6 | 8.0 | 0.00 | 0.00 | 0.00 | 52 | 1014.8 |
| 20260902181710 | 35 | 92 | 1.6 | 6.4 | 0.00 | 0.00 | 0.00 | 51 | 1014.9 |
| 20260902181206 | 35 | 195 | 1.6 | 6.4 | 0.00 | 0.00 | 0.00 | 52 | 1014.9 |
| 20260902180444 | 35 | 71 | 1.6 | 6.4 | 0.00 | 0.00 | 0.00 | 52 | 1014.9 |
| 20260902175943 | 35 | 163 | 1.6 | 8.0 | 0.00 | 0.00 | 0.00 | 51 | 1014.9 |
| 20260902175445 | 35 | 0 | 1.6 | 9.7 | 0.00 | 0.00 | 0.00 | 51 | 1014.9 |
| 20260902174940 | 35 | 0 | 1.6 | 9.7 | 0.00 | 0.00 | 0.00 | 51 | 1015.0 |
| 20260902174440 | 35 | 316 | 1.6 | 4.8 | 0.00 | 0.00 | 0.00 | 48 | 1015.0 |
| 20260902173940 | 35 | 166 | 1.6 | 6.4 | 0.00 | 0.00 | 0.00 | 51 | 1015.1 |
| 20260902173439 | 35 | 349 | 3.2 | 6.4 | 0.00 | 0.00 | 0.00 | 49 | 1015.2 |
| 20260902172938 | 35 | 191 | 1.6 | 6.4 | 0.00 | 0.00 | 0.00 | 50 | 1015.3 |
| 20260902172440 | 35 | 249 | 1.6 | 8.0 | 0.00 | 0.00 | 0.00 | 46 | 1015.3 |
| 20260902171934 | 35 | 144 | 1.6 | 8.0 | 0.00 | 0.00 | 0.00 | 49 | 1015.4 |
| 20260902171433 | 35 | 224 | 1.6 | 6.4 | 0.00 | 0.00 | 0.00 | 53 | 1015.4 |
| 20260902170933 | 35 | 70 | 1.6 | 6.4 | 0.00 | 0.00 | 0.00 | 53 | 1015.5 |
| 20260902170433 | 35 | 175 | 1.6 | 6.4 | 0.00 | 0.00 | 0.00 | 53 | 1015.5 |
| 20260902165934 | 34 | 0 | 1.6 | 6.4 | 0.00 | 0.00 | 0.00 | 51 | 1015.5 |
| 20260902165651 | 34 | 303 | 1.6 | 6.4 | 0.00 | 0.00 | 0.00 | 53 | 1015.6 |
| 20260902164929 | 34 | 158 | 1.6 | 4.8 | 0.00 | 0.00 | 0.00 | 54 | 1015.6 |
| 20260902164430 | 33 | 56 | 1.6 | 6.4 | 0.00 | 0.00 | 0.00 | 54 | 1015.6 |
| 20260902163929 | 33 | 22 | 1.6 | 6.4 | 0.00 | 0.00 | 0.00 | 56 | 1015.6 |
| 20260902163429 | 33 | 141 | 1.6 | 6.4 | 0.00 | 0.00 | 0.00 | 59 | 1015.7 |
| 20260902162929 | 33 | 221 | 1.6 | 6.4 | 0.00 | 0.00 | 0.00 | 56 | 1015.8 |
| 20260902162429 | 33 | 161 | 1.6 | 6.4 | 0.00 | 0.00 | 0.00 | 58 | 1015.8 |
| 20260902161928 | 32 | 228 | 1.6 | 6.4 | 0.00 | 0.00 | 0.00 | 61 | 1015.8 |
| 20260902161427 | 32 | 0 | 1.6 | 6.4 | 0.00 | 0.00 | 0.00 | 59 | 1015.8 |
| 20260902160927 | 32 | 254 | 1.6 | 6.4 | 0.00 | 0.00 | 0.00 | 61 | 1015.9 |
| 20260902160655 | 32 | 297 | 1.6 | 6.4 | 0.00 | 0.00 | 0.00 | 63 | 1016.0 |
| 20260902155928 | 32 | 262 | 1.6 | 4.8 | 0.00 | 0.00 | 0.00 | 62 | 1016.1 |
| 20260902155428 | 31 | 225 | 1.6 | 8.0 | 0.00 | 0.00 | 0.00 | 63 | 1016.3 |
| 20260902154928 | 31 | 179 | 1.6 | 8.0 | 0.00 | 0.00 | 0.00 | 63 | 1016.3 |
| 20260902154425 | 31 | 240 | 1.6 | 8.0 | 0.00 | 0.00 | 0.00 | 63 | 1016.3 |
| 20260902153924 | 31 | 95 | 0.0 | 6.4 | 0.00 | 0.00 | 0.00 | 63 | 1016.4 |
| 20260902153423 | 31 | 233 | 0.0 | 3.2 | 0.00 | 0.00 | 0.00 | 63 | 1016.4 |
| 20260902152924 | 31 | 0 | 0.0 | 3.2 | 0.00 | 0.00 | 0.00 | 63 | 1016.4 |
| 20260902152643 | 32 | 67 | 1.6 | 3.2 | 0.00 | 0.00 | 0.00 | 62 | 1016.4 |
| 20260902151922 | 32 | 211 | 1.6 | 3.2 | 0.00 | 0.00 | 0.00 | 61 | 1016.4 |
| 20260902151423 | 32 | 0 | 0.0 | 3.2 | 0.00 | 0.00 | 0.00 | 61 | 1016.4 |
| 20260902151146 | 32 | 199 | 1.6 | 4.8 | 0.00 | 0.00 | 0.00 | 61 | 1016.3 |
| 20260902150420 | 32 | 310 | 1.6 | 4.8 | 0.00 | 0.00 | 0.00 | 62 | 1016.3 |
| 20260902150152 | 32 | 265 | 1.6 | 3.2 | 0.00 | 0.00 | 0.00 | 63 | 1016.1 |
| 20260902145416 | 32 | 29 | 0.0 | 3.2 | 0.00 | 0.00 | 0.00 | 62 | 1016.3 |
| 20260902144917 | 32 | 136 | 1.6 | 6.4 | 0.00 | 0.00 | 0.00 | 63 | 1016.1 |
| 20260902144417 | 31 | 207 | 1.6 | 6.4 | 0.00 | 0.00 | 0.00 | 64 | 1016.1 |
| 20260902143916 | 31 | 264 | 0.0 | 3.2 | 0.00 | 0.00 | 0.00 | 65 | 1016.1 |
| 20260902143410 | 31 | 251 | 1.6 | 6.4 | 0.00 | 0.00 | 0.00 | 67 | 1016.0 |
| 20260902143140 | 31 | 62 | 1.6 | 6.4 | 0.00 | 0.00 | 0.00 | 64 | 1015.9 |
| 20260902142411 | 31 | 215 | 1.6 | 3.2 | 0.00 | 0.00 | 0.00 | 66 | 1015.9 |
| 20260902141910 | 31 | 80 | 1.6 | 4.8 | 0.00 | 0.00 | 0.00 | 66 | 1015.9 |
| 20260902141411 | 30 | 220 | 1.6 | 4.8 | 0.00 | 0.00 | 0.00 | 68 | 1015.9 |
| 20260902140908 | 30 | 35 | 1.6 | 4.8 | 0.00 | 0.00 | 0.00 | 68 | 1015.9 |
| 20260902140407 | 30 | 0 | 1.6 | 6.4 | 0.00 | 0.00 | 0.00 | 69 | 1015.9 |
| 20260902135905 | 30 | 226 | 1.6 | 6.4 | 0.00 | 0.00 | 0.00 | 68 | 1015.9 |
| 20260902135406 | 30 | 144 | 1.6 | 6.4 | 0.00 | 0.00 | 0.00 | 69 | 1016.0 |
| 20260902134905 | 30 | 240 | 1.6 | 6.4 | 0.00 | 0.00 | 0.00 | 69 | 1015.9 |
| 20260902134406 | 29 | 90 | 1.6 | 9.7 | 0.00 | 0.00 | 0.00 | 70 | 1015.8 |
| 20260902133907 | 29 | 160 | 1.6 | 9.7 | 0.00 | 0.00 | 0.00 | 71 | 1015.8 |
| 20260902133406 | 29 | 241 | 1.6 | 6.4 | 0.00 | 0.00 | 0.00 | 71 | 1015.8 |
| 20260902132905 | 28 | 283 | 1.6 | 6.4 | 0.00 | 0.00 | 0.00 | 72 | 1015.8 |
| 20260902132406 | 28 | 6 | 1.6 | 6.4 | 0.00 | 0.00 | 0.00 | 73 | 1015.8 |
| 20260902132130 | 28 | 202 | 1.6 | 6.4 | 0.00 | 0.00 | 0.00 | 73 | 1015.7 |
| 20260902131405 | 28 | 240 | 1.6 | 6.4 | 0.00 | 0.00 | 0.00 | 73 | 1015.7 |
| 20260902131125 | 28 | 140 | 1.6 | 4.8 | 0.00 | 0.00 | 0.00 | 75 | 1015.8 |
| 20260902130406 | 27 | 223 | 1.6 | 6.4 | 0.00 | 0.00 | 0.00 | 76 | 1015.7 |
| 20260902130130 | 27 | 75 | 3.2 | 6.4 | 0.00 | 0.00 | 0.00 | 76 | 1015.8 |
| 20260902125405 | 27 | 257 | 1.6 | 6.4 | 0.00 | 0.00 | 0.00 | 76 | 1015.7 |
| 20260902124905 | 27 | 183 | 1.6 | 4.8 | 0.00 | 0.00 | 0.00 | 77 | 1015.7 |
| 20260902124405 | 27 | 216 | 1.6 | 4.8 | 0.00 | 0.00 | 0.00 | 77 | 1015.7 |
| 20260902123906 | 26 | 71 | 1.6 | 3.2 | 0.00 | 0.00 | 0.00 | 79 | 1015.7 |
| 20260902123403 | 26 | 290 | 1.6 | 4.8 | 0.00 | 0.00 | 0.00 | 80 | 1015.7 |
| 20260902122902 | 26 | 188 | 1.6 | 4.8 | 0.00 | 0.00 | 0.00 | 81 | 1015.8 |
| 20260902122403 | 25 | 228 | 1.6 | 8.0 | 0.00 | 0.00 | 0.00 | 82 | 1015.8 |
| 20260902122342 | 25 | 206 | 1.6 | 8.0 | 0.00 | 0.00 | 0.00 | 83 | 1015.8 |
| 20260902121621 | 25 | 211 | 1.6 | 6.4 | 0.00 | 0.00 | 0.00 | 83 | 1015.8 |
| 20260902120903 | 25 | 42 | 1.6 | 6.4 | 0.00 | 0.00 | 0.00 | 84 | 1015.9 |
| 20260902120401 | 25 | 201 | 1.6 | 4.8 | 0.00 | 0.00 | 0.00 | 85 | 1015.8 |
| 20260902115901 | 25 | 164 | 0.0 | 3.2 | 0.00 | 0.00 | 0.00 | 85 | 1015.7 |
| 20260902115359 | 25 | 231 | 1.6 | 4.8 | 0.00 | 0.00 | 0.00 | 85 | 1015.7 |
| 20260902114902 | 25 | 132 | 1.6 | 6.4 | 0.00 | 0.00 | 0.00 | 85 | 1015.6 |
| 20260902114400 | 25 | 161 | 1.6 | 6.4 | 0.00 | 0.00 | 0.00 | 85 | 1015.4 |
| 20260902113859 | 25 | 0 | 1.6 | 6.4 | 0.00 | 0.00 | 0.00 | 86 | 1015.4 |
| 20260902113623 | 25 | 200 | 1.6 | 6.4 | 0.00 | 0.00 | 0.00 | 86 | 1015.3 |
| 20260902112901 | 25 | 230 | 0.0 | 6.4 | 0.00 | 0.00 | 0.00 | 86 | 1015.3 |
| 20260902112400 | 25 | 43 | 1.6 | 4.8 | 0.00 | 0.00 | 0.00 | 86 | 1015.3 |
| 20260902111858 | 25 | 151 | 1.6 | 6.4 | 0.00 | 0.00 | 0.00 | 86 | 1015.2 |
| 20260902111615 | 25 | 188 | 1.6 | 6.4 | 0.00 | 0.00 | 0.00 | 86 | 1015.2 |
| 20260902110857 | 25 | 166 | 1.6 | 6.4 | 0.00 | 0.00 | 0.00 | 86 | 1015.1 |
| 20260902110357 | 25 | 0 | 1.6 | 6.4 | 0.00 | 0.00 | 0.00 | 86 | 1015.1 |
| 20260902105857 | 25 | 129 | 1.6 | 6.4 | 0.00 | 0.00 | 0.00 | 86 | 1015.1 |
| 20260902105358 | 25 | 140 | 1.6 | 6.4 | 0.00 | 0.00 | 0.00 | 86 | 1015.1 |
| 20260902104854 | 25 | 157 | 1.6 | 6.4 | 0.00 | 0.00 | 0.00 | 85 | 1015.1 |
| 20260902104620 | 25 | 221 | 1.6 | 6.4 | 0.00 | 0.00 | 0.00 | 85 | 1015.1 |
| 20260902103855 | 25 | 211 | 1.6 | 6.4 | 0.00 | 0.00 | 0.00 | 85 | 1015.1 |
| 20260902103356 | 25 | 176 | 1.6 | 4.8 | 0.00 | 0.00 | 0.00 | 85 | 1015.1 |
| 20260902102855 | 25 | 194 | 1.6 | 4.8 | 0.00 | 0.00 | 0.00 | 86 | 1015.0 |
| 20260902102355 | 25 | 123 | 1.6 | 4.8 | 0.00 | 0.00 | 0.00 | 86 | 1015.1 |
| 20260902102120 | 25 | 222 | 1.6 | 4.8 | 0.00 | 0.00 | 0.00 | 86 | 1015.1 |
| 20260902101355 | 25 | 0 | 1.6 | 4.8 | 0.00 | 0.00 | 0.00 | 86 | 1015.1 |
| 20260902100856 | 25 | 280 | 1.6 | 8.0 | 0.00 | 0.00 | 0.00 | 86 | 1015.1 |
| 20260902100355 | 24 | 212 | 1.6 | 8.0 | 0.00 | 0.00 | 0.00 | 86 | 1015.0 |
| 20260902095856 | 24 | 140 | 1.6 | 6.4 | 0.00 | 0.00 | 0.00 | 86 | 1015.0 |
| 20260902095356 | 24 | 163 | 1.6 | 6.4 | 0.00 | 0.00 | 0.00 | 86 | 1015.0 |
| 20260902094855 | 24 | 236 | 1.6 | 6.4 | 0.00 | 0.00 | 0.00 | 86 | 1015.1 |
| 20260902094615 | 24 | 174 | 1.6 | 9.7 | 0.00 | 0.00 | 0.00 | 86 | 1015.0 |
| 20260902093852 | 24 | 226 | 1.6 | 9.7 | 0.00 | 0.00 | 0.00 | 87 | 1015.0 |
| 20260902093352 | 24 | 154 | 1.6 | 6.4 | 0.00 | 0.00 | 0.00 | 87 | 1014.9 |
| 20260902092853 | 24 | 230 | 1.6 | 6.4 | 0.00 | 0.00 | 0.00 | 87 | 1015.1 |
| 20260902092353 | 25 | 233 | 1.6 | 4.8 | 0.00 | 0.00 | 0.00 | 86 | 1015.2 |
| 20260902092118 | 25 | 167 | 1.6 | 6.4 | 0.00 | 0.00 | 0.00 | 86 | 1015.2 |
| 20260902091608 | 25 | 124 | 1.6 | 6.4 | 0.00 | 0.00 | 0.00 | 86 | 1015.2 |
| 20260902090850 | 24 | 176 | 1.6 | 6.4 | 0.00 | 0.00 | 0.00 | 87 | 1015.2 |
| 20260902090610 | 24 | 185 | 1.6 | 6.4 | 0.00 | 0.00 | 0.00 | 87 | 1015.2 |